Location: Ferris
(32.5340°N, 96.6656°W)
Time: 10:46:30
(UTC+00:00)

Cosmos 1777 Rocket - Pass Details

Date: 11 February 2026
Orbit: 753 x 771 km, 74.0° (Epoch: 8 March)

Event Time Altitude Azimuth Distance (km) Brightness Sun altitude
Rises 12:03:36 0° 214° (SW) 3,191 6.9 -15.2°
Reaches altitude 10° 12:06:06 10° 222° (SW) 2,269 6.1 -14.7°
Maximum altitude 12:10:53 39° 291° (WNW) 1,125 4.4 -13.7°
Drops below altitude 10° 12:15:43 10° 360° (N) 2,282 6.4 -12.7°
Sets 12:18:14 0° 8° (N) 3,212 7.2 -12.1°
